Time,TemperatureF,DewpointF,PressureIn,WindDirection,WindDirectionDegrees,WindSpeedMPH,WindSpeedGustMPH,Humidity,HourlyPrecipIn,Conditions,Clouds,dailyrainin,SolarRadiationWatts/m^2,SoftwareType,DateUTC
2013-07-27 00:02:00,65.0,53.0,-100.00,NW,319,15.0,21.0,66,0.00,,,0.04,0.000000,,2013-07-27 07:02:00,
2013-07-27 00:12:00,65.0,53.0,-100.00,NW,319,15.0,21.0,66,0.00,,,0.04,0.000000,,2013-07-27 07:12:00,
2013-07-27 00:22:00,65.0,53.0,-100.00,NW,319,15.0,21.0,66,0.00,,,0.04,0.000000,,2013-07-27 07:22:00,
2013-07-27 00:52:00,66.0,54.0,-100.00,NNW,335,15.0,19.0,66,0.00,,,0.04,0.000000,,2013-07-27 07:52:00,
2013-07-27 01:02:00,66.0,54.0,-100.00,NNW,335,15.0,19.0,66,0.00,,,0.04,0.000000,,2013-07-27 08:02:00,
2013-07-27 01:12:00,66.0,54.0,-100.00,NNW,335,15.0,19.0,66,0.00,,,0.04,0.000000,,2013-07-27 08:12:00,
2013-07-27 01:21:00,66.0,54.0,-100.00,NNW,335,15.0,19.0,66,0.00,,,0.04,0.000000,,2013-07-27 08:21:00,
2013-07-27 01:53:00,64.0,54.0,-100.00,NW,325,16.0,20.0,69,0.00,,,0.04,0.000000,,2013-07-27 08:53:00,
2013-07-27 02:02:00,64.0,54.0,-100.00,NW,325,16.0,20.0,69,0.00,,,0.04,0.000000,,2013-07-27 09:02:00,
2013-07-27 02:11:00,64.0,54.0,-100.00,NW,325,16.0,20.0,69,0.00,,,0.04,0.000000,,2013-07-27 09:11:00,
2013-07-27 02:22:00,64.0,54.0,-100.00,NW,325,16.0,20.0,69,0.00,,,0.04,0.000000,,2013-07-27 09:22:00,
2013-07-27 02:52:00,65.0,54.0,-100.00,NNW,330,16.0,21.0,67,0.00,,,0.04,0.000000,,2013-07-27 09:52:00,
2013-07-27 03:02:00,65.0,54.0,-100.00,NNW,330,16.0,21.0,67,0.00,,,0.04,0.000000,,2013-07-27 10:02:00,
2013-07-27 03:12:00,65.0,54.0,-100.00,NNW,330,16.0,21.0,67,0.00,,,0.04,0.000000,,2013-07-27 10:12:00,
2013-07-27 03:22:00,65.0,54.0,-100.00,NNW,330,16.0,21.0,67,0.00,,,0.04,0.000000,,2013-07-27 10:22:00,
2013-07-27 03:52:00,65.0,53.0,-100.00,NNW,330,16.0,20.0,66,0.00,,,0.04,0.000000,,2013-07-27 10:52:00,
2013-07-27 04:02:00,65.0,53.0,-100.00,NNW,330,16.0,20.0,66,0.00,,,0.04,0.000000,,2013-07-27 11:02:00,
2013-07-27 04:12:00,65.0,53.0,-100.00,NNW,330,16.0,20.0,66,0.00,,,0.04,0.000000,,2013-07-27 11:12:00,
2013-07-27 04:22:00,65.0,53.0,-100.00,NNW,330,16.0,20.0,66,0.00,,,0.04,0.000000,,2013-07-27 11:22:00,
2013-07-27 04:53:00,64.0,53.0,-100.00,NNW,327,14.0,19.0,67,0.00,,,0.04,0.000000,,2013-07-27 11:53:00,
2013-07-27 05:02:00,64.0,53.0,-100.00,NNW,327,14.0,19.0,67,0.00,,,0.04,0.000000,,2013-07-27 12:02:00,
2013-07-27 05:12:00,64.0,53.0,-100.00,NNW,327,14.0,19.0,67,0.00,,,0.04,0.000000,,2013-07-27 12:12:00,
2013-07-27 05:22:00,64.0,53.0,-100.00,NNW,327,14.0,19.0,67,0.00,,,0.04,0.000000,,2013-07-27 12:22:00,
2013-07-27 05:52:00,64.0,55.0,-100.00,NW,323,13.0,18.0,73,0.00,,,0.04,0.000000,,2013-07-27 12:52:00,
2013-07-27 06:02:00,64.0,55.0,-100.00,NW,323,13.0,18.0,73,0.00,,,0.04,0.000000,,2013-07-27 13:02:00,
2013-07-27 06:12:00,64.0,55.0,-100.00,NW,323,13.0,18.0,73,0.00,,,0.04,0.000000,,2013-07-27 13:12:00,
2013-07-27 06:22:00,64.0,55.0,-100.00,NW,323,13.0,18.0,73,0.00,,,0.04,0.000000,,2013-07-27 13:22:00,
2013-07-27 06:53:00,63.0,54.0,-100.00,NNW,327,13.0,16.0,72,0.00,,,0.04,0.000000,,2013-07-27 13:53:00,
2013-07-27 07:02:00,63.0,54.0,-100.00,NNW,327,13.0,16.0,72,0.00,,,0.04,0.000000,,2013-07-27 14:02:00,
2013-07-27 07:12:00,63.0,54.0,-100.00,NNW,327,13.0,16.0,72,0.00,,,0.04,0.000000,,2013-07-27 14:12:00,
2013-07-27 07:22:00,63.0,54.0,-100.00,NNW,327,13.0,16.0,72,0.00,,,0.04,0.000000,,2013-07-27 14:22:00,
2013-07-27 07:54:00,63.0,53.0,-100.00,North,10,3.0,18.0,69,0.00,,,0.04,0.000000,,2013-07-27 14:54:00,
2013-07-27 08:02:00,63.0,53.0,-100.00,North,10,3.0,18.0,69,0.00,,,0.04,0.000000,,2013-07-27 15:02:00,
2013-07-27 08:12:00,63.0,53.0,-100.00,North,10,3.0,18.0,69,0.00,,,0.04,0.000000,,2013-07-27 15:12:00,
2013-07-27 08:22:00,63.0,53.0,-100.00,North,10,3.0,18.0,69,0.00,,,0.04,0.000000,,2013-07-27 15:22:00,
2013-07-27 08:53:00,65.0,55.0,-100.00,NW,326,3.0,14.0,69,0.00,,,0.04,40.000000,,2013-07-27 15:53:00,
2013-07-27 09:02:00,65.0,55.0,-100.00,NW,326,3.0,14.0,69,0.00,,,0.04,40.000000,,2013-07-27 16:02:00,
2013-07-27 09:12:00,65.0,55.0,-100.00,NW,326,3.0,14.0,69,0.00,,,0.04,40.000000,,2013-07-27 16:12:00,
2013-07-27 09:22:00,65.0,55.0,-100.00,NW,326,3.0,14.0,69,0.00,,,0.04,40.000000,,2013-07-27 16:22:00,
2013-07-27 09:54:00,67.0,51.0,-100.00,SSE,150,4.0,9.0,57,0.00,,,0.04,179.000000,,2013-07-27 16:54:00,
2013-07-27 10:02:00,67.0,51.0,-100.00,SSE,150,4.0,9.0,57,0.00,,,0.04,179.000000,,2013-07-27 17:02:00,
2013-07-27 10:12:00,67.0,51.0,-100.00,SSE,150,4.0,9.0,57,0.00,,,0.04,179.000000,,2013-07-27 17:12:00,
2013-07-27 10:22:00,67.0,51.0,-100.00,SSE,150,4.0,9.0,57,0.00,,,0.04,179.000000,,2013-07-27 17:22:00,
2013-07-27 11:02:00,74.0,51.0,-100.00,ENE,69,6.0,11.0,45,0.00,,,0.04,676.000000,,2013-07-27 18:02:00,
2013-07-27 11:12:00,74.0,51.0,-100.00,ENE,69,6.0,11.0,45,0.00,,,0.04,676.000000,,2013-07-27 18:12:00,
2013-07-27 11:22:00,74.0,51.0,-100.00,ENE,69,6.0,11.0,45,0.00,,,0.04,676.000000,,2013-07-27 18:22:00,
2013-07-27 11:53:00,75.0,55.0,-100.00,ESE,114,13.0,14.0,50,0.00,,,0.04,924.000000,,2013-07-27 18:53:00,
2013-07-27 12:02:00,75.0,55.0,-100.00,ESE,114,13.0,14.0,50,0.00,,,0.04,924.000000,,2013-07-27 19:02:00,
2013-07-27 12:12:00,75.0,55.0,-100.00,ESE,114,13.0,14.0,50,0.00,,,0.04,924.000000,,2013-07-27 19:12:00,
2013-07-27 12:22:00,75.0,55.0,-100.00,ESE,114,13.0,14.0,50,0.00,,,0.04,924.000000,,2013-07-27 19:22:00,
2013-07-27 12:53:00,75.0,54.0,-100.00,ESE,106,12.0,20.0,48,0.00,,,0.04,860.000000,,2013-07-27 19:53:00,
2013-07-27 13:02:00,75.0,54.0,-100.00,ESE,106,12.0,20.0,48,0.00,,,0.04,860.000000,,2013-07-27 20:02:00,
2013-07-27 13:12:00,75.0,54.0,-100.00,ESE,106,12.0,20.0,48,0.00,,,0.04,860.000000,,2013-07-27 20:12:00,
2013-07-27 13:22:00,75.0,54.0,-100.00,ESE,106,12.0,20.0,48,0.00,,,0.04,860.000000,,2013-07-27 20:22:00,
2013-07-27 13:52:00,75.0,53.0,-100.00,ESE,119,10.0,26.0,47,0.00,,,0.04,1085.000000,,2013-07-27 20:52:00,
2013-07-27 14:22:00,75.0,53.0,-100.00,ESE,119,10.0,26.0,47,0.00,,,0.04,1085.000000,,2013-07-27 21:22:00,
2013-07-27 14:53:00,76.0,51.0,-100.00,East,85,5.0,20.0,42,0.00,,,-99.99,990.000000,,2013-07-27 21:53:00,
2013-07-27 15:02:00,76.0,51.0,-100.00,East,85,5.0,20.0,42,0.00,,,-99.99,990.000000,,2013-07-27 22:02:00,
2013-07-27 15:12:00,76.0,51.0,-100.00,East,85,5.0,20.0,42,0.00,,,-99.99,990.000000,,2013-07-27 22:12:00,
2013-07-27 15:22:00,76.0,51.0,-100.00,East,85,5.0,20.0,42,0.00,,,-99.99,990.000000,,2013-07-27 22:22:00,
2013-07-27 15:53:00,76.0,51.0,-100.00,SSE,166,4.0,14.0,42,0.00,,,0.03,848.000000,,2013-07-27 22:53:00,
2013-07-27 16:02:00,76.0,51.0,-100.00,SSE,166,4.0,14.0,42,0.00,,,0.03,848.000000,,2013-07-27 23:02:00,
2013-07-27 16:12:00,76.0,51.0,-100.00,SSE,166,4.0,14.0,42,0.00,,,0.03,848.000000,,2013-07-27 23:12:00,
2013-07-27 16:22:00,76.0,51.0,-100.00,SSE,166,4.0,14.0,42,0.00,,,0.03,848.000000,,2013-07-27 23:22:00,
2013-07-27 16:53:00,77.0,51.0,-100.00,WSW,241,7.0,13.0,41,0.00,,,0.03,663.000000,,2013-07-27 23:53:00,
2013-07-27 17:02:00,77.0,51.0,-100.00,WSW,241,7.0,13.0,41,0.00,,,0.03,663.000000,,2013-07-28 00:02:00,
2013-07-27 17:22:00,77.0,51.0,-100.00,WSW,241,7.0,13.0,41,0.00,,,0.03,663.000000,,2013-07-28 00:22:00,
2013-07-27 17:53:00,79.0,52.0,-100.00,SW,232,6.0,13.0,39,0.00,,,0.03,663.000000,,2013-07-28 00:53:00,
2013-07-27 18:02:00,79.0,52.0,-100.00,SW,232,6.0,13.0,39,0.00,,,0.03,663.000000,,2013-07-28 01:02:00,
2013-07-27 18:12:00,79.0,52.0,-100.00,SW,232,6.0,13.0,39,0.00,,,0.03,663.000000,,2013-07-28 01:12:00,
2013-07-27 18:22:00,79.0,52.0,-100.00,SW,232,6.0,13.0,39,0.00,,,0.03,663.000000,,2013-07-28 01:22:00,
2013-07-27 18:53:00,77.0,48.0,-100.00,WNW,282,11.0,12.0,36,-99.99,,,0.01,525.000000,,2013-07-28 01:53:00,
2013-07-27 19:02:00,77.0,48.0,-100.00,WNW,282,11.0,12.0,36,-99.99,,,0.01,525.000000,,2013-07-28 02:02:00,
2013-07-27 19:12:00,77.0,48.0,-100.00,WNW,282,11.0,12.0,36,-99.99,,,0.01,525.000000,,2013-07-28 02:12:00,
2013-07-27 19:22:00,77.0,48.0,-100.00,WNW,282,11.0,12.0,36,-99.99,,,0.01,525.000000,,2013-07-28 02:22:00,
2013-07-27 19:53:00,79.0,53.0,-100.00,NW,314,9.0,21.0,40,0.00,,,0.00,303.000000,,2013-07-28 02:53:00,
2013-07-27 20:02:00,79.0,53.0,-100.00,NW,314,9.0,21.0,40,0.00,,,0.00,303.000000,,2013-07-28 03:02:00,
2013-07-27 20:12:00,79.0,53.0,-100.00,NW,314,9.0,21.0,40,0.00,,,0.00,303.000000,,2013-07-28 03:12:00,
2013-07-27 20:22:00,79.0,53.0,-100.00,NW,314,9.0,21.0,40,0.00,,,0.00,303.000000,,2013-07-28 03:22:00,
2013-07-27 20:53:00,74.0,52.0,-100.00,WNW,285,9.0,24.0,46,-99.99,,,0.00,121.000000,,2013-07-28 03:53:00,
2013-07-27 21:02:00,74.0,52.0,-100.00,WNW,285,9.0,24.0,46,-99.99,,,0.00,121.000000,,2013-07-28 04:02:00,
2013-07-27 21:12:00,74.0,52.0,-100.00,WNW,285,9.0,24.0,46,-99.99,,,0.00,121.000000,,2013-07-28 04:12:00,
2013-07-27 21:22:00,74.0,52.0,-100.00,WNW,285,9.0,24.0,46,-99.99,,,0.00,121.000000,,2013-07-28 04:22:00,
2013-07-27 21:53:00,69.0,48.0,-100.00,NW,318,12.0,22.0,47,-99.99,,,0.00,11.000000,,2013-07-28 04:53:00,
2013-07-27 22:02:00,69.0,48.0,-100.00,NW,318,12.0,22.0,47,-99.99,,,0.00,11.000000,,2013-07-28 05:02:00,
2013-07-27 22:12:00,69.0,48.0,-100.00,NW,318,12.0,22.0,47,-99.99,,,0.00,11.000000,,2013-07-28 05:12:00,
2013-07-27 22:22:00,69.0,48.0,-100.00,NW,318,12.0,22.0,47,-99.99,,,0.00,11.000000,,2013-07-28 05:22:00,
2013-07-27 22:53:00,69.0,48.0,-100.00,NW,322,12.0,18.0,47,0.00,,,0.00,0.000000,,2013-07-28 05:53:00,
2013-07-27 23:02:00,69.0,48.0,-100.00,NW,322,12.0,18.0,47,0.00,,,0.00,0.000000,,2013-07-28 06:02:00,
2013-07-27 23:12:00,69.0,48.0,-100.00,NW,322,12.0,18.0,47,0.00,,,0.00,0.000000,,2013-07-28 06:12:00,
2013-07-27 23:22:00,69.0,48.0,-100.00,NW,322,12.0,18.0,47,0.00,,,0.00,0.000000,,2013-07-28 06:22:00,
2013-07-27 23:53:00,68.0,48.0,-100.00,NNW,327,13.0,16.0,49,0.00,,,0.00,0.000000,,2013-07-28 06:53:00,